Regional Weather Roundup
Issued by NWS

Home | Current Version | Previous Version | Text Only | Print | Product List | Glossary Off
Versions: 1 2 3 4 5 6 7 8 9 10 11 12 13 14 15 16 17 18 19 20 21 22 23 24 25 26 27 28 29 30 31 32 33 34 35 36 37 38 39 40 41 42 43 44 45 46 47 48 49 50

000
ASUS43 KLMK 061602
RWRKY
KENTUCKY REGIONAL WEATHER ROUNDUP
NATIONAL WEATHER SERVICE LOUISVILLE KY
1100 AM EST FRI MAR 06 2015

NOTE "FAIR" INDICATES FEW OR NO CLOUDS BELOW 12,000 FEET
WITH NO SIGNIFICANT WEATHER AND/OR OBSTRUCTIONS TO VISIBILITY.

KYZ001>023-026-027-061>063-070>075-061700-
WESTERN AND SOUTH CENTRAL KENTUCKY

CITY           SKY/WX    TMP DP  RH WIND       PRES   REMARKS
PADUCAH        SUNNY     21   9  59 W3        30.61F
HENDERSON      SUNNY     18  10  73 CALM      30.61S
OWENSBORO      SUNNY     16   8  70 S8        30.60S WCI   5
HOPKINSVILLE   SUNNY     14   6  69 NE3       30.60S
BOWLING GREEN  SUNNY     20  10  65 CALM      30.60S
GLASGOW        NOT AVBL
$$

KYZ024-025-028>034-038-045-046-053-061700-
NORTH CENTRAL KENTUCKY

CITY           SKY/WX    TMP DP  RH WIND       PRES   REMARKS
LOUISVILLE/SDF MOSUNNY   21   9  59 SE6       30.59S WCI  13
LOUISVILLE/LOU SUNNY     21   9  59 S5        30.59S WCI  15
FORT KNOX      SUNNY     18  13  80 VRB1      30.55F
$$

KYZ035>037-039>044-047>052-055>060-089>105-061700-
NORTHEAST KENTUCKY

CITY           SKY/WX    TMP DP  RH WIND       PRES   REMARKS
LEXINGTON      SUNNY     17  10  74 S8        30.56S WCI   7
COVINGTON      PTSUNNY   19   6  57 S9        30.54F WCI   8
FRANKFORT      SUNNY     17  10  74 S3        30.56F
$$

KYZ054-064>069-076>088-106>120-061700-
SOUTHEAST KENTUCKY

CITY           SKY/WX    TMP DP  RH WIND       PRES   REMARKS
JACKSON        SUNNY     20   9  62 VRB3      30.51F
LONDON         SUNNY     22  10  60 CALM      30.52F
SOMERSET       NOT AVBL
MIDDLESBORO    SUNNY     24  10  54 CALM      30.51F
MONTICELLO     SUNNY     25  16  68 CALM      30.58S
$$




USA.gov is the U.S. government's official web portal to all federal, state and local government web resources and services.